Regional Weather Roundup
Issued by NWS

Home | Current Version | Previous Version | Text Only | Print | Product List | Glossary On
Versions: 1 2 3 4 5 6 7 8 9 10 11 12 13 14 15 16 17 18 19 20 21 22 23 24 25 26 27 28 29 30 31 32 33 34 35 36 37 38 39 40 41 42 43 44 45 46 47 48 49 50
000
ASUS42 KKEY 020710
RWRKEY

FLORIDA REGIONAL WEATHER ROUNDUP FOR THE FLORIDA KEYS
NATIONAL WEATHER SERVICE KEY WEST FLORIDA
300 AM EDT WED SEP 02 2015

...SOUTH FLORIDA AND THE KEYS...

CITY           SKY/WX    TMP DP  RH WIND       PRES   REMARKS
FORT MYERS     PTCLDY    78  75  90 SE3       30.04F
SW REGIONAL AP PTCLDY    79  74  84 CALM      30.05F
NAPLES         CLEAR     80  74  81 NE3       30.04F
MIAMI          PTCLDY    84  78  82 E6        30.04F HX  95
WEST KENDALL   PTCLDY    78  76  93 CALM      30.05S
HOMESTEAD      CLEAR     82  77  82 E3        30.03F HX  90
MARATHON       PTCLDY    85  78  80 E7        30.03F HX  96
BOCA CHICA NAS PTCLDY    84  76  76 SE8       30.03F HX  93
KEY WEST INTL  CLEAR     85  76  74 SE10      30.04F HX  94

...INTERNATIONAL WEATHER...

CITY           SKY/WX    TMP DP  RH WIND       PRES   REMARKS
NASSAU BAHAMAS NOT AVBL
CANCUN MEXICO  MOCLDY    82  77  83 E6        30.01F HX  91
COZUMEL MEXICO PTCLDY    73  73 100 CALM      30.01F

ADJACENT COASTAL WATERS...

STATION/POSITION TIME  SKY/WX   TEMP    WIND        PRES    WAVE
                                AIR SEA DIR/SP/G            HT/PER
                 (UTC)          (F)     (DEG/KT/KT) (MB)    (FT/S)
PULASKI SHOAL LI 0600                                 N/A
SAND KEY         0650            86        CALM     1017.1F
SOMBRERO KEY     NOT AVBL
LONG KEY         0600            85 87  120/ 12/ 13 1018.1F
MOLASSES REEF    0600            85 87  100/  9/ 10 1017.6F
FOWEY ROCKS      NOT AVBL

$$



USA.gov is the U.S. government's official web portal to all federal, state and local government web resources and services.